When you browse on this site, cookies collect data to enhance your experience and personalize the content and advertising you see.
Visit our Privacy Policy to learn more. By continuing to use the site, you agree to this use of cookies and data.
  • In Hungary
  • List of Countries
  • For 7 days
  • Water Temperature
  • Satellite Maps
  • Weather Map
  • News
  • Weather Widgets
  • user-avatar
    Login

    Hourly Weather Logrono

    Today, 19 January, Saturday

    Time Temperature Precipitation Wind Pressure Humidity
    00:00 +3°C° 0 mm 3 mps 725 mmHg 76%
    01:00 +3°C° 0 mm 3 mps 725 mmHg 78%
    02:00 +3°C° 0 mm 2 mps 725 mmHg 79%
    03:00 +3°C° 0 mm 2 mps 725 mmHg 81%
    04:00 +3°C° 0 mm 2 mps 725 mmHg 82%
    05:00 +3°C° 0 mm 2 mps 725 mmHg 84%
    06:00 +3°C° 0 mm 2 mps 724 mmHg 86%
    07:00 +3°C° 0 mm 2 mps 724 mmHg 83%
    08:00 +4°C° 0 mm 2 mps 724 mmHg 81%
    09:00 +5°C° 0 mm 2 mps 724 mmHg 78%
    10:00 +7°C° 0 mm 1 mps 724 mmHg 70%
    11:00 +9°C° 0 mm 1 mps 723 mmHg 63%
    12:00 +11°C° 0 mm 1 mps 723 mmHg 55%
    13:00 +11°C° 0 mm 1 mps 722 mmHg 55%
    14:00 +11°C° 0 mm 1 mps 722 mmHg 56%
    15:00 +10°C° 0 mm 2 mps 721 mmHg 56%
    16:00 +9°C° 0.1 mm 2 mps 721 mmHg 62%
    17:00 +8°C° 0.1 mm 2 mps 720 mmHg 68%
    18:00 +7°C° 0.1 mm 2 mps 720 mmHg 73%
    19:00 +7°C° 0.1 mm 2 mps 720 mmHg 75%
    20:00 +7°C° 0.1 mm 1 mps 720 mmHg 77%
    21:00 +7°C° 0.1 mm 1 mps 720 mmHg 79%
    22:00 +7°C° 0.1 mm 1 mps 720 mmHg 81%
    23:00 +6°C° 0.1 mm 1 mps 720 mmHg 83%

    Tomorrow, 20 January, Sunday

    Time Temperature Precipitation Wind Pressure Humidity
    00:00 +6°C° 0.1 mm 1 mps 720 mmHg 85%
    01:00 +6°C° 0.1 mm 1 mps 721 mmHg 86%
    02:00 +6°C° 0.1 mm 1 mps 721 mmHg 88%
    03:00 +5°C° 0.1 mm 0 mps 721 mmHg 89%
    04:00 +5°C° 0 mm 1 mps 721 mmHg 90%
    05:00 +5°C° 0 mm 1 mps 721 mmHg 91%
    06:00 +4°C° 0 mm 2 mps 722 mmHg 91%
    07:00 +5°C° 0.5 mm 2 mps 722 mmHg 90%
    08:00 +4°C° 0.5 mm 3 mps 723 mmHg 88%
    09:00 +4°C° 0.5 mm 3 mps 723 mmHg 87%
    10:00 +5°C° 0 mm 4 mps 724 mmHg 82%
    11:00 +6°C° 0 mm 4 mps 724 mmHg 77%
    12:00 +7°C° 0 mm 4 mps 724 mmHg 71%
    13:00 +8°C° 0 mm 4 mps 724 mmHg 70%
    14:00 +8°C° 0 mm 4 mps 724 mmHg 68%
    15:00 +8°C° 0 mm 4 mps 723 mmHg 66%
    16:00 +7°C° 0 mm 4 mps 724 mmHg 73%
    17:00 +6°C° 0 mm 4 mps 724 mmHg 79%
    18:00 +5°C° 0 mm 3 mps 725 mmHg 85%
    19:00 +5°C° 0 mm 3 mps 725 mmHg 86%
    20:00 +5°C° 0 mm 4 mps 726 mmHg 86%
    21:00 +5°C° 0 mm 4 mps 726 mmHg 86%
    22:00 +5°C° 0.1 mm 4 mps 727 mmHg 87%
    23:00 +5°C° 0.1 mm 4 mps 727 mmHg 88%

    Day after tomorrow, 21 January, Monday

    Time Temperature Precipitation Wind Pressure Humidity
    00:00 +4°C° 0.1 mm 3 mps 727 mmHg 88%
    01:00 +4°C° 0 mm 4 mps 727 mmHg 88%
    02:00 +4°C° 0 mm 4 mps 727 mmHg 87%
    03:00 +4°C° 0 mm 4 mps 728 mmHg 86%
    04:00 +4°C° 0.1 mm 4 mps 728 mmHg 86%
    05:00 +4°C° 0.1 mm 4 mps 728 mmHg 87%
    06:00 +4°C° 0.1 mm 4 mps 728 mmHg 87%
    07:00 +4°C° 0.1 mm 4 mps 729 mmHg 86%
    08:00 +3°C° 0.1 mm 5 mps 729 mmHg 85%
    09:00 +3°C° 0.1 mm 5 mps 729 mmHg 84%
    10:00 +5°C° 0.1 mm 5 mps 730 mmHg 80%
    11:00 +5°C° 0.1 mm 5 mps 730 mmHg 76%
    12:00 +5°C° 0.1 mm 5 mps 730 mmHg 72%
    13:00 +5°C° 0 mm 5 mps 730 mmHg 72%
    14:00 +5°C° 0 mm 5 mps 730 mmHg 72%
    15:00 +5°C° 0 mm 5 mps 729 mmHg 72%
    16:00 +5°C° 0 mm 4 mps 730 mmHg 76%
    17:00 +4°C° 0 mm 3 mps 730 mmHg 80%
    18:00 +3°C° 0 mm 3 mps 730 mmHg 84%
    19:00 +4°C° 0 mm 2 mps 730 mmHg 86%
    20:00 +4°C° 0 mm 2 mps 731 mmHg 87%
    21:00 +4°C° 0 mm 2 mps 731 mmHg 88%
    22:00 +3°C° 0 mm 2 mps 730 mmHg 88%
    23:00 +3°C° 0 mm 2 mps 730 mmHg 88%

    22 January, Tuesday

    Time Temperature Precipitation Wind Pressure Humidity
    00:00 +3°C° 0 mm 2 mps 730 mmHg 88%
    01:00 +3°C° 0 mm 2 mps 729 mmHg 86%
    02:00 +3°C° 0 mm 2 mps 729 mmHg 84%
    03:00 +2°C° 0 mm 2 mps 728 mmHg 82%
    04:00 +3°C° 0 mm 2 mps 728 mmHg 80%
    05:00 +3°C° 0 mm 2 mps 727 mmHg 78%
    06:00 +4°C° 0 mm 2 mps 727 mmHg 76%
    07:00 +3°C° 0.2 mm 3 mps 726 mmHg 75%
    08:00 +4°C° 0.2 mm 3 mps 726 mmHg 74%
    09:00 +4°C° 0.2 mm 3 mps 725 mmHg 73%
    10:00 +5°C° 0.2 mm 4 mps 725 mmHg 72%
    11:00 +4°C° 0.2 mm 6 mps 725 mmHg 72%
    12:00 +5°C° 0.2 mm 7 mps 724 mmHg 72%
    13:00 +5°C° 0.3 mm 7 mps 724 mmHg 73%
    14:00 +5°C° 0.3 mm 7 mps 723 mmHg 74%
    15:00 +4°C° 0.3 mm 6 mps 722 mmHg 75%
    16:00 +4°C° 0.5 mm 6 mps 721 mmHg 78%
    17:00 +4°C° 0.5 mm 6 mps 721 mmHg 80%
    18:00 +3°C° 0.5 mm 6 mps 721 mmHg 82%
    19:00 +3°C° 0.8 mm 6 mps 721 mmHg 83%
    20:00 +3°C° 0.8 mm 7 mps 720 mmHg 84%
    21:00 +2°C° 0.8 mm 8 mps 720 mmHg 84%
    22:00 +1°C° 1.2 mm 8 mps 720 mmHg 85%
    23:00 +1°C° 1.2 mm 8 mps 720 mmHg 86%

    23 January, Wednesday

    Time Temperature Precipitation Wind Pressure Humidity
    00:00 +1°C° 1.2 mm 8 mps 720 mmHg 86%
    01:00 0°C° 0.9 mm 8 mps 719 mmHg 87%
    02:00 0°C° 0.9 mm 8 mps 719 mmHg 88%
    03:00 0°C° 0.9 mm 8 mps 719 mmHg 89%
    04:00 0°C° 0.9 mm 7 mps 718 mmHg 89%
    05:00 0°C° 0.9 mm 7 mps 718 mmHg 90%
    06:00 0°C° 0.9 mm 7 mps 717 mmHg 90%
    07:00 +1°C° 1.4 mm 6 mps 717 mmHg 91%
    08:00 +1°C° 1.4 mm 4 mps 717 mmHg 92%
    09:00 +2°C° 1.4 mm 3 mps 717 mmHg 93%
    10:00 +2°C° 1.7 mm 3 mps 717 mmHg 94%
    11:00 +1°C° 1.7 mm 4 mps 717 mmHg 94%
    12:00 +1°C° 1.7 mm 4 mps 717 mmHg 95%
    13:00 +1°C° 1.2 mm 4 mps 717 mmHg 95%
    14:00 +1°C° 1.2 mm 5 mps 717 mmHg 95%
    15:00 0°C° 1.2 mm 5 mps 717 mmHg 95%
    16:00 0°C° 0.7 mm 4 mps 717 mmHg 94%
    17:00 0°C° 0.7 mm 4 mps 718 mmHg 93%
    18:00 0°C° 0.7 mm 4 mps 718 mmHg 92%
    19:00 0°C° 0.2 mm 4 mps 718 mmHg 92%
    20:00 -1°C° 0.2 mm 4 mps 718 mmHg 91%
    21:00 -1°C° 0.2 mm 4 mps 719 mmHg 90%
    22:00 -1°C° 0.1 mm 4 mps 719 mmHg 90%
    23:00 0°C° 0.1 mm 3 mps 719 mmHg 90%

    24 January, Thursday

    Time Temperature Precipitation Wind Pressure Humidity
    00:00 -1°C° 0.1 mm 3 mps 719 mmHg 90%
    01:00 0°C° 0.3 mm 3 mps 718 mmHg 91%
    02:00 0°C° 0.3 mm 3 mps 718 mmHg 92%
    03:00 0°C° 0.3 mm 3 mps 718 mmHg 92%
    04:00 0°C° 0.7 mm 3 mps 718 mmHg 93%
    05:00 +1°C° 0.7 mm 2 mps 718 mmHg 94%
    06:00 +1°C° 0.7 mm 2 mps 718 mmHg 94%
    07:00 +1°C° 0.2 mm 2 mps 718 mmHg 94%
    08:00 0°C° 0.2 mm 3 mps 719 mmHg 93%
    09:00 0°C° 0.2 mm 3 mps 719 mmHg 92%
    10:00 0°C° 0 mm 3 mps 719 mmHg 93%
    11:00 +1°C° 0 mm 3 mps 719 mmHg 93%
    12:00 +1°C° 0 mm 3 mps 720 mmHg 93%
    13:00 0°C° 0 mm 4 mps 720 mmHg 91%
    14:00 0°C° 0 mm 4 mps 720 mmHg 89%
    15:00 0°C° 0 mm 5 mps 721 mmHg 87%
    16:00 -1°C° 0 mm 4 mps 721 mmHg 88%
    17:00 -2°C° 0 mm 4 mps 722 mmHg 88%
    18:00 -4°C° 0 mm 4 mps 722 mmHg 89%
    19:00 -3°C° 0 mm 4 mps 723 mmHg 90%
    20:00 -2°C° 0 mm 4 mps 724 mmHg 90%
    21:00 -2°C° 0 mm 5 mps 725 mmHg 90%
    22:00 -1°C° 0 mm 4 mps 725 mmHg 91%
    23:00 -1°C° 0 mm 4 mps 725 mmHg 91%
    Show more